EW3145 Weather Reports


time (UTC)temp
C
wind
direction
speed
KPH
gust
KPH
rain 1hr
cm
rain 24hr
cm
rain mn
cm
humidity
%
barometer
mb
20200531070055 16 275 0.0 0.0 0.00 0.48 0.00 68 1008.9
20200531064611 16 286 0.0 0.0 0.00 0.48 0.00 67 1008.6
20200531063059 16 279 0.0 0.0 0.00 0.48 0.00 67 1008.8
20200531061553 17 259 0.0 0.0 0.00 0.48 0.00 67 1008.8
20200531060017 17 311 0.0 0.0 0.00 0.48 0.00 66 1008.8
20200531054630 17 351 0.0 4.8 0.00 0.48 0.00 66 1008.7
20200531053253 17 321 0.0 0.0 0.00 0.48 0.00 65 1008.6
20200531051611 17 300 0.0 0.0 0.00 0.48 0.00 65 1008.6
20200531050051 17 323 0.0 0.0 0.00 0.48 0.00 66 1008.5
20200531044522 17 294 0.0 0.0 0.00 0.48 0.48 66 1008.3
20200531043015 17 306 0.0 0.0 0.00 0.48 0.48 65 1008.3
20200531041717 17 298 0.0 12.9 0.00 0.48 0.48 64 1008.2
20200531034617 17 323 0.0 0.0 0.00 0.48 0.48 63 1008.4
20200531033136 18 253 0.0 16.1 0.00 0.48 0.48 63 1008.4
20200531031510 18 306 3.2 9.7 0.00 0.48 0.48 62 1008.3
20200531030007 18 323 0.0 19.3 0.00 0.48 0.48 61 1008.3
20200531024618 19 281 0.0 1.6 0.00 0.48 0.48 59 1008.3
20200531023140 19 286 4.8 17.7 0.00 0.48 0.48 57 1008.2
20200531021551 18 314 0.0 0.0 0.00 0.48 0.48 60 1008.2
20200531020113 18 262 0.0 0.0 0.00 0.48 0.48 59 1007.7
20200531014517 19 272 0.0 0.0 0.00 0.48 0.48 57 1007.6
20200531013012 19 268 0.0 0.0 0.00 0.48 0.48 59 1007.7
20200531011834 20 268 0.0 0.0 0.00 0.48 0.48 57 1007.6
20200531010131 20 271 0.0 0.0 0.00 0.48 0.48 57 1007.5
20200531004600 21 271 0.0 0.0 0.00 0.48 0.48 56 1007.3
20200531003035 22 271 0.0 0.0 0.00 0.48 0.48 53 1007.0
20200531001529 22 271 0.0 0.0 0.00 0.48 0.48 48 1006.8
20200531000038 23 271 0.0 0.0 0.00 0.48 0.48 46 1007.0
20200530234643 23 286 0.0 3.2 0.00 0.48 0.48 42 1007.1
20200530233115 24 271 0.0 9.7 0.00 0.48 0.48 41 1007.0
20200530231558 25 246 0.0 3.2 0.00 0.48 0.48 40 1007.0
20200530230100 25 297 0.0 6.4 0.00 0.48 0.48 40 1006.8
20200530224536 25 248 0.0 1.6 0.00 0.48 0.48 40 1006.7
20200530223024 26 269 0.0 16.1 0.00 0.48 0.48 38 1006.6
20200530221711 26 296 0.0 0.0 0.00 0.48 0.48 37 1006.6
20200530220315 26 296 0.0 0.0 0.00 0.48 0.48 37 1006.5
20200530214613 26 294 0.0 12.9 0.00 0.48 0.48 38 1006.5
20200530213125 26 302 0.0 11.3 0.00 0.48 0.48 38 1006.5
20200530211537 27 266 0.0 11.3 0.00 0.48 0.48 38 1006.5
20200530210036 27 215 0.0 11.3 0.00 0.48 0.48 39 1006.5
20200530204507 27 302 0.0 0.0 0.00 0.48 0.48 39 1006.5
20200530203008 27 294 0.0 12.9 0.00 0.48 0.48 39 1006.5
20200530201651 27 280 0.0 6.4 0.00 0.48 0.48 39 1006.5
20200530200058 27 334 0.0 0.0 0.00 0.48 0.48 39 1006.5
20200530194618 27 300 0.0 0.0 0.00 0.48 0.48 39 1006.6
20200530193038 27 288 0.0 1.6 0.00 0.48 0.48 40 1006.4
20200530191625 27 348 0.0 0.0 0.00 0.48 0.48 39 1006.4
20200530190006 28 311 0.0 0.0 0.00 0.48 0.48 41 1006.5
20200530184510 28 313 3.2 17.7 0.00 0.48 0.48 40 1006.7
20200530183103 27 334 0.0 0.0 0.00 0.48 0.48 42 1006.6
20200530181607 27 333 0.0 9.7 0.00 0.48 0.48 40 1006.6
20200530180038 28 250 0.0 0.0 0.00 0.48 0.48 40 1006.8
20200530174547 28 277 1.6 16.1 0.00 0.48 0.48 40 1006.8
20200530173116 27 302 0.0 4.8 0.00 0.48 0.48 41 1006.9
20200530171651 27 319 0.0 12.9 0.00 0.48 0.48 41 1006.9
20200530170108 27 328 0.0 0.0 0.00 0.48 0.48 42 1006.9
20200530164535 27 349 0.0 8.0 0.00 0.48 0.48 42 1007.2
20200530163057 27 323 0.0 1.6 0.00 0.48 0.48 43 1007.3
20200530161535 26 267 6.4 12.9 0.00 0.48 0.48 44 1007.5
20200530160002 26 260 0.0 1.6 0.00 0.48 0.48 46 1007.7
20200530154502 26 294 1.6 16.1 0.00 0.48 0.48 46 1007.7
20200530153123 25 306 0.0 0.0 0.00 0.48 0.48 47 1007.7
20200530151557 25 229 0.0 0.0 0.00 0.48 0.48 48 1007.9
20200530150024 25 249 0.0 14.5 0.00 0.48 0.48 48 1007.8
20200530144524 26 264 0.0 9.7 0.00 0.48 0.48 47 1007.6
20200530143006 26 347 0.0 16.1 0.00 0.48 0.48 49 1007.5
20200530141500 25 234 0.0 19.3 0.00 0.48 0.48 52 1007.5
20200530140116 25 254 0.0 14.5 0.00 0.48 0.48 55 1007.4
20200530134617 25 313 0.0 1.6 0.00 0.48 0.48 57 1007.5
20200530133055 25 311 0.0 0.0 0.00 0.48 0.48 58 1007.6
20200530131554 26 334 1.6 12.9 0.03 0.48 0.48 56 1007.6
20200530130007 25 281 0.0 1.6 0.03 0.48 0.48 60 1007.7
20200530124505 24 227 0.0 14.5 0.03 0.48 0.48 64 1007.5
20200530123117 24 281 0.0 0.0 0.03 0.48 0.48 69 1007.4
20200530121835 23 180 0.0 12.9 0.00 0.46 0.46 74 1007.1
20200530120110 22 243 0.0 1.6 0.00 0.46 0.46 86 1007.0
20200530114619 21 250 0.0 0.0 0.00 0.46 0.46 95 1007.1
20200530113219 20 188 0.0 0.0 0.00 0.46 0.46 97 1006.8
20200530111636 20 174 0.0 0.0 0.00 0.46 0.46 96 1006.6
20200530110110 20 185 0.0 0.0 0.00 0.46 0.46 97 1006.8
20200530104601 20 164 0.0 0.0 0.00 0.46 0.46 97 1006.7
20200530103022 20 270 0.0 0.0 0.00 0.46 0.46 96 1006.9
20200530101516 20 164 0.0 0.0 0.00 0.46 0.46 96 1006.7
20200530100119 20 164 0.0 0.0 0.00 0.46 0.46 96 1006.6
20200530094708 20 180 0.0 0.0 0.00 0.46 0.46 96 1006.4
20200530093038 20 163 0.0 0.0 0.00 0.46 0.46 96 1006.4
20200530091704 20 196 0.0 0.0 0.00 0.46 0.46 96 1006.4
20200530090105 20 197 0.0 0.0 0.00 0.46 0.46 96 1006.1
20200530084546 20 163 0.0 0.0 0.00 0.46 0.46 96 1005.9
20200530083220 20 175 0.0 0.0 0.00 0.46 0.46 96 1006.2
20200530081728 20 180 0.0 0.0 0.08 0.46 0.46 95 1006.3
20200530080058 20 166 0.0 0.0 0.46 0.46 0.46 95 1006.7
20200530074616 20 184 0.0 0.0 0.46 0.46 0.46 95 1006.8
20200530073028 20 196 0.0 0.0 0.46 0.46 0.46 94 1006.8
20200530071524 20 173 0.0 0.0 0.36 0.36 0.36 93 1006.7